Retour au catalogue

SL-3 DEB

ActifPO
NORAD 20348·DEBRIS·🇷🇺 Russia

Lancé Jun 30, 1972 depuis Plesetsk Cosmodrome

Loading…

Prochains Passages (prochaines 24 heures)

TLE

FraisSource: Space-Track

Époque: Sep 14, 2026, 05:03 UTC

1 20348U 72049C   26257.21085957  .00000051  00000-0  24788-4 0  9997
2 20348  81.2420 334.9054 0049293 140.6414 219.8352 14.02271434770496

Suivez SL-3 DEB en temps réel avec AllMySat

Download on the App Store